Time,TemperatureF,DewpointF,PressureIn,WindDirection,WindDirectionDegrees,WindSpeedMPH,WindSpeedGustMPH,Humidity,HourlyPrecipIn,Conditions,Clouds,dailyrainin,SoftwareType,DateUTC
2013-05-12 00:02:00,47.6,42.4,29.66,SW,236,0.0,0.0,82,0.00,,,0.00,Wunderground v.1.15,2013-05-12 04:02:00,
2013-05-12 00:07:00,47.4,42.5,29.66,SW,236,0.0,0.0,83,0.00,,,0.00,Wunderground v.1.15,2013-05-12 04:07:00,
2013-05-12 00:12:00,47.3,42.4,29.66,SW,236,0.0,0.0,83,0.00,,,0.00,Wunderground v.1.15,2013-05-12 04:12:00,
2013-05-12 00:22:00,47.0,42.4,29.66,SW,236,0.0,0.0,84,0.00,,,0.00,Wunderground v.1.15,2013-05-12 04:22:00,
2013-05-12 00:32:00,46.8,42.5,29.65,SW,236,0.0,0.0,85,0.00,,,0.00,Wunderground v.1.15,2013-05-12 04:32:00,
2013-05-12 00:37:00,47.1,42.8,29.65,SW,234,0.0,0.0,85,0.00,,,0.00,Wunderground v.1.15,2013-05-12 04:37:00,
2013-05-12 00:47:00,47.6,43.3,29.65,SW,234,0.0,0.0,85,0.00,,,0.00,Wunderground v.1.15,2013-05-12 04:47:00,
2013-05-12 00:52:00,47.7,43.4,29.65,SW,234,0.0,0.0,85,0.00,,,0.00,Wunderground v.1.15,2013-05-12 04:52:00,
2013-05-12 01:02:00,48.0,43.4,29.64,South,182,0.0,0.0,84,0.00,,,0.00,Wunderground v.1.15,2013-05-12 05:02:00,
2013-05-12 01:07:00,48.0,43.4,29.64,South,181,0.0,0.0,84,0.00,,,0.00,Wunderground v.1.15,2013-05-12 05:07:00,
2013-05-12 01:17:00,48.2,43.6,29.64,South,181,0.0,0.0,84,0.00,,,0.00,Wunderground v.1.15,2013-05-12 05:17:00,
2013-05-12 01:22:00,48.3,43.7,29.64,South,181,0.0,0.0,84,0.00,,,0.00,Wunderground v.1.15,2013-05-12 05:22:00,
2013-05-12 01:32:00,48.6,43.7,29.63,South,191,0.0,0.0,83,0.00,,,0.00,Wunderground v.1.15,2013-05-12 05:32:00,
2013-05-12 01:37:00,48.6,43.4,29.63,South,191,0.0,0.0,82,0.00,,,0.00,Wunderground v.1.15,2013-05-12 05:37:00,
2013-05-12 01:47:00,48.9,43.3,29.63,South,185,0.0,0.0,81,0.00,,,0.00,Wunderground v.1.15,2013-05-12 05:47:00,
2013-05-12 01:52:00,49.1,43.5,29.63,South,185,0.0,0.0,81,0.00,,,0.00,Wunderground v.1.15,2013-05-12 05:52:00,
2013-05-12 02:02:00,49.4,43.5,29.62,South,186,0.0,0.0,80,0.00,,,0.00,Wunderground v.1.15,2013-05-12 06:02:00,
2013-05-12 02:07:00,49.5,43.6,29.62,South,186,0.0,0.0,80,0.00,,,0.00,Wunderground v.1.15,2013-05-12 06:07:00,
2013-05-12 02:12:00,49.6,43.4,29.62,South,185,0.0,0.0,79,0.00,,,0.00,Wunderground v.1.15,2013-05-12 06:12:00,
2013-05-12 02:22:00,50.2,43.3,29.62,South,186,0.0,0.0,77,0.00,,,0.00,Wunderground v.1.15,2013-05-12 06:22:00,
2013-05-12 02:32:00,50.5,43.6,29.62,SSW,192,0.0,0.0,77,0.00,,,0.00,Wunderground v.1.15,2013-05-12 06:32:00,
2013-05-12 02:37:00,50.5,43.9,29.62,SSW,192,0.0,0.0,78,0.00,,,0.00,Wunderground v.1.15,2013-05-12 06:37:00,
2013-05-12 02:47:00,50.4,43.8,29.62,SSW,193,0.0,0.0,78,0.00,,,0.00,Wunderground v.1.15,2013-05-12 06:47:00,
2013-05-12 02:52:00,50.4,44.1,29.62,South,185,0.0,0.0,79,0.00,,,0.00,Wunderground v.1.15,2013-05-12 06:52:00,
2013-05-12 03:02:00,50.4,44.1,29.63,South,185,0.0,0.0,79,0.00,,,0.00,Wunderground v.1.15,2013-05-12 07:02:00,
2013-05-12 03:12:00,50.4,43.8,29.63,WNW,294,1.0,3.0,78,0.00,,,0.01,Wunderground v.1.15,2013-05-12 07:12:00,
2013-05-12 03:22:00,48.9,42.0,29.65,WNW,292,1.0,1.0,77,0.00,,,0.01,Wunderground v.1.15,2013-05-12 07:22:00,
2013-05-12 03:32:00,48.3,41.4,29.65,West,263,1.0,1.0,77,0.00,,,0.01,Wunderground v.1.15,2013-05-12 07:32:00,
2013-05-12 03:37:00,48.0,41.5,29.65,West,264,1.0,3.0,78,0.00,,,0.01,Wunderground v.1.15,2013-05-12 07:37:00,
2013-05-12 03:47:00,47.1,40.9,29.66,West,274,2.0,9.0,79,0.00,,,0.01,Wunderground v.1.15,2013-05-12 07:47:00,
2013-05-12 03:52:00,46.5,40.3,29.66,West,265,3.0,3.0,79,0.00,,,0.01,Wunderground v.1.15,2013-05-12 07:52:00,
2013-05-12 04:02:00,46.1,40.3,29.66,East,95,1.0,1.0,80,0.00,,,0.01,Wunderground v.1.15,2013-05-12 08:02:00,
2013-05-12 04:12:00,45.1,39.3,29.66,NW,304,2.0,5.0,80,0.00,,,0.01,Wunderground v.1.15,2013-05-12 08:12:00,
2013-05-12 04:22:00,44.2,37.8,29.67,WNW,292,3.0,3.0,78,0.00,,,0.01,Wunderground v.1.15,2013-05-12 08:22:00,
2013-05-12 04:32:00,43.9,37.5,29.67,WSW,237,2.0,2.0,78,0.00,,,0.01,Wunderground v.1.15,2013-05-12 08:32:00,
2013-05-12 04:37:00,43.8,37.4,29.67,ENE,73,2.0,2.0,78,0.00,,,0.01,Wunderground v.1.15,2013-05-12 08:37:00,
2013-05-12 04:47:00,43.5,36.8,29.68,ENE,75,0.0,1.0,77,0.00,,,0.01,Wunderground v.1.15,2013-05-12 08:47:00,
2013-05-12 04:52:00,43.2,36.1,29.68,WNW,292,1.0,1.0,76,0.00,,,0.01,Wunderground v.1.15,2013-05-12 08:52:00,
2013-05-12 05:02:00,42.8,35.4,29.69,NNE,32,1.0,1.0,75,0.00,,,0.01,Wunderground v.1.15,2013-05-12 09:02:00,
2013-05-12 05:12:00,42.3,34.6,29.69,NW,312,1.0,1.0,74,0.00,,,0.01,Wunderground v.1.15,2013-05-12 09:12:00,
2013-05-12 05:22:00,41.8,34.1,29.69,WNW,295,1.0,6.0,74,0.00,,,0.01,Wunderground v.1.15,2013-05-12 09:22:00,
2013-05-12 05:32:00,41.6,33.6,29.70,South,169,1.0,2.0,73,0.00,,,0.01,Wunderground v.1.15,2013-05-12 09:32:00,
2013-05-12 05:37:00,41.3,33.0,29.70,WNW,282,1.0,2.0,72,0.00,,,0.01,Wunderground v.1.15,2013-05-12 09:37:00,
2013-05-12 05:47:00,40.9,32.6,29.71,West,278,1.0,6.0,72,0.00,,,0.01,Wunderground v.1.15,2013-05-12 09:47:00,
2013-05-12 05:52:00,40.6,32.3,29.71,West,280,0.0,0.0,72,0.00,,,0.01,Wunderground v.1.15,2013-05-12 09:52:00,
2013-05-12 06:02:00,40.5,31.8,29.72,NW,305,1.0,1.0,71,0.00,,,0.01,Wunderground v.1.15,2013-05-12 10:02:00,
2013-05-12 06:12:00,40.2,31.5,29.72,WSW,248,0.0,3.0,71,0.00,,,0.01,Wunderground v.1.15,2013-05-12 10:12:00,
2013-05-12 06:22:00,40.1,32.1,29.72,West,277,0.0,0.0,73,0.00,,,0.01,Wunderground v.1.15,2013-05-12 10:22:00,
2013-05-12 06:32:00,40.2,32.2,29.73,SSW,212,0.0,0.0,73,0.00,,,0.01,Wunderground v.1.15,2013-05-12 10:32:00,
2013-05-12 06:37:00,40.3,32.0,29.73,SSW,212,1.0,1.0,72,0.00,,,0.01,Wunderground v.1.15,2013-05-12 10:37:00,
2013-05-12 06:47:00,40.3,32.0,29.73,NW,305,1.0,1.0,72,0.00,,,0.01,Wunderground v.1.15,2013-05-12 10:47:00,
2013-05-12 06:52:00,40.5,32.2,29.73,SSW,200,1.0,1.0,72,0.00,,,0.01,Wunderground v.1.15,2013-05-12 10:52:00,
2013-05-12 07:02:00,40.3,32.0,29.73,SSE,160,1.0,2.0,72,0.00,,,0.01,Wunderground v.1.15,2013-05-12 11:02:00,
2013-05-12 07:07:00,40.3,32.0,29.73,SSE,161,1.0,2.0,72,0.00,,,0.01,Wunderground v.1.15,2013-05-12 11:07:00,
2013-05-12 07:17:00,40.6,31.9,29.74,NW,326,1.0,8.0,71,0.00,,,0.01,Wunderground v.1.15,2013-05-12 11:17:00,
2013-05-12 07:22:00,40.8,31.4,29.74,SSE,158,1.0,1.0,69,0.00,,,0.01,Wunderground v.1.15,2013-05-12 11:22:00,
2013-05-12 07:32:00,41.1,31.3,29.74,NE,52,1.0,2.0,68,0.00,,,0.01,Wunderground v.1.15,2013-05-12 11:32:00,
2013-05-12 07:37:00,41.3,30.8,29.74,SW,227,1.0,2.0,66,0.00,,,0.01,Wunderground v.1.15,2013-05-12 11:37:00,
2013-05-12 07:47:00,41.9,30.6,29.74,SE,137,1.0,1.0,64,0.00,,,0.01,Wunderground v.1.15,2013-05-12 11:47:00,
2013-05-12 07:52:00,42.2,30.9,29.74,SSW,192,1.0,1.0,64,0.00,,,0.01,Wunderground v.1.15,2013-05-12 11:52:00,
2013-05-12 08:02:00,42.8,30.7,29.74,NW,323,1.0,1.0,62,0.00,,,0.01,Wunderground v.1.15,2013-05-12 12:02:00,
2013-05-12 08:07:00,43.2,30.6,29.74,WNW,298,1.0,3.0,61,0.00,,,0.01,Wunderground v.1.15,2013-05-12 12:07:00,
2013-05-12 08:17:00,44.2,31.2,29.73,SW,220,1.0,1.0,60,0.00,,,0.01,Wunderground v.1.15,2013-05-12 12:17:00,
2013-05-12 08:22:00,44.8,32.2,29.73,NW,306,1.0,1.0,61,0.00,,,0.01,Wunderground v.1.15,2013-05-12 12:22:00,
2013-05-12 08:32:00,45.7,32.6,29.73,South,184,1.0,1.0,60,0.00,,,0.01,Wunderground v.1.15,2013-05-12 12:32:00,
2013-05-12 08:38:00,46.0,32.9,29.73,ESE,104,1.0,1.0,60,0.00,,,0.01,Wunderground v.1.15,2013-05-12 12:38:00,
2013-05-12 08:47:00,46.1,31.3,29.73,West,270,1.0,2.0,56,0.00,,,0.01,Wunderground v.1.15,2013-05-12 12:47:00,
2013-05-12 08:53:00,46.2,30.9,29.73,SSE,155,2.0,2.0,55,0.00,,,0.01,Wunderground v.1.15,2013-05-12 12:53:00,
2013-05-12 09:02:00,47.4,31.6,29.72,SW,232,1.0,1.0,54,0.00,,,0.01,Wunderground v.1.15,2013-05-12 13:02:00,
2013-05-12 09:07:00,48.0,32.1,29.72,WSW,253,1.0,1.0,54,0.00,,,0.01,Wunderground v.1.15,2013-05-12 13:07:00,
2013-05-12 09:17:00,48.2,32.3,29.72,SW,222,1.0,3.0,54,0.00,,,0.01,Wunderground v.1.15,2013-05-12 13:17:00,
2013-05-12 09:22:00,48.5,32.1,29.72,SSW,213,1.0,3.0,53,0.00,,,0.01,Wunderground v.1.15,2013-05-12 13:22:00,
2013-05-12 09:32:00,48.6,32.2,29.72,WNW,282,1.0,3.0,53,0.00,,,0.01,Wunderground v.1.15,2013-05-12 13:32:00,
2013-05-12 09:37:00,48.5,31.7,29.72,WNW,291,1.0,3.0,52,0.00,,,0.01,Wunderground v.1.15,2013-05-12 13:37:00,
2013-05-12 09:47:00,49.2,31.3,29.71,South,169,2.0,4.0,50,0.00,,,0.01,Wunderground v.1.15,2013-05-12 13:47:00,
2013-05-12 09:52:00,49.2,30.8,29.71,SSW,213,2.0,2.0,49,0.00,,,0.01,Wunderground v.1.15,2013-05-12 13:52:00,
2013-05-12 10:02:00,49.8,31.9,29.71,SW,219,2.0,2.0,50,0.00,,,0.01,Wunderground v.1.15,2013-05-12 14:02:00,
2013-05-12 10:12:00,49.6,31.7,29.71,SW,226,2.0,2.0,50,0.00,,,0.01,Wunderground v.1.15,2013-05-12 14:12:00,
2013-05-12 10:17:00,49.8,31.4,29.70,SW,215,2.0,2.0,49,0.00,,,0.01,Wunderground v.1.15,2013-05-12 14:17:00,
2013-05-12 10:22:00,50.1,30.1,29.70,WNW,296,2.0,2.0,46,0.00,,,0.01,Wunderground v.1.15,2013-05-12 14:22:00,
2013-05-12 10:32:00,50.7,30.7,29.70,SSW,192,1.0,1.0,46,0.00,,,0.01,Wunderground v.1.15,2013-05-12 14:32:00,
2013-05-12 10:37:00,51.0,31.5,29.70,South,181,1.0,1.0,47,0.00,,,0.01,Wunderground v.1.15,2013-05-12 14:37:00,
2013-05-12 10:47:00,48.9,30.6,29.71,WNW,294,2.0,10.0,49,0.00,,,0.01,Wunderground v.1.15,2013-05-12 14:47:00,
2013-05-12 10:52:00,45.2,34.1,29.71,WNW,292,4.0,4.0,65,0.00,,,0.01,Wunderground v.1.15,2013-05-12 14:52:00,
2013-05-12 11:02:00,43.3,35.2,29.72,NW,305,2.0,2.0,73,0.00,,,0.01,Wunderground v.1.15,2013-05-12 15:02:00,
2013-05-12 11:08:00,44.3,36.2,29.72,WSW,251,2.0,2.0,73,0.00,,,0.01,Wunderground v.1.15,2013-05-12 15:08:00,
2013-05-12 11:17:00,46.7,36.3,29.71,West,280,2.0,4.0,67,0.00,,,0.01,Wunderground v.1.15,2013-05-12 15:17:00,
2013-05-12 11:22:00,48.2,36.2,29.71,SW,227,1.0,1.0,63,0.00,,,0.01,Wunderground v.1.15,2013-05-12 15:22:00,
2013-05-12 11:32:00,50.2,34.2,29.70,West,261,1.0,6.0,54,0.00,,,0.01,Wunderground v.1.15,2013-05-12 15:32:00,
2013-05-12 11:38:00,51.0,32.5,29.70,South,189,1.0,1.0,49,0.00,,,0.01,Wunderground v.1.15,2013-05-12 15:38:00,
2013-05-12 11:47:00,51.0,32.0,29.70,ESE,119,2.0,3.0,48,0.00,,,0.01,Wunderground v.1.15,2013-05-12 15:47:00,
2013-05-12 11:52:00,51.7,31.6,29.70,WSW,240,2.0,6.0,46,0.00,,,0.01,Wunderground v.1.15,2013-05-12 15:52:00,
2013-05-12 12:02:00,52.0,29.6,29.70,SW,224,3.0,3.0,42,0.00,,,0.01,Wunderground v.1.15,2013-05-12 16:02:00,
2013-05-12 12:07:00,52.0,30.2,29.70,NNW,330,3.0,3.0,43,0.00,,,0.01,Wunderground v.1.15,2013-05-12 16:07:00,
2013-05-12 12:17:00,52.0,29.0,29.70,WNW,287,3.0,3.0,41,0.00,,,0.01,Wunderground v.1.15,2013-05-12 16:17:00,
2013-05-12 12:23:00,51.7,29.9,29.70,West,272,3.0,3.0,43,0.00,,,0.01,Wunderground v.1.15,2013-05-12 16:23:00,
2013-05-12 12:32:00,51.4,28.5,29.70,WSW,250,3.0,7.0,41,0.00,,,0.01,Wunderground v.1.15,2013-05-12 16:32:00,
2013-05-12 12:38:00,51.6,28.0,29.70,WNW,302,3.0,3.0,40,0.00,,,0.01,Wunderground v.1.15,2013-05-12 16:38:00,
2013-05-12 12:47:00,51.6,27.4,29.71,West,265,4.0,4.0,39,0.00,,,0.01,Wunderground v.1.15,2013-05-12 16:47:00,
2013-05-12 12:53:00,51.7,27.5,29.71,SW,232,5.0,5.0,39,0.00,,,0.01,Wunderground v.1.15,2013-05-12 16:53:00,
2013-05-12 13:02:00,52.3,27.4,29.71,NW,322,3.0,3.0,38,0.00,,,0.01,Wunderground v.1.15,2013-05-12 17:02:00,
2013-05-12 13:12:00,52.0,27.1,29.71,WSW,257,3.0,3.0,38,0.00,,,0.01,Wunderground v.1.15,2013-05-12 17:12:00,
2013-05-12 13:17:00,52.0,28.4,29.71,WSW,243,3.0,3.0,40,0.00,,,0.01,Wunderground v.1.15,2013-05-12 17:17:00,
2013-05-12 13:22:00,51.1,28.2,29.71,WSW,248,2.0,2.0,41,0.00,,,0.01,Wunderground v.1.15,2013-05-12 17:22:00,
2013-05-12 13:32:00,50.5,28.8,29.72,NW,312,2.0,6.0,43,0.00,,,0.01,Wunderground v.1.15,2013-05-12 17:32:00,
2013-05-12 13:37:00,50.1,28.4,29.72,West,260,3.0,6.0,43,0.00,,,0.01,Wunderground v.1.15,2013-05-12 17:37:00,
2013-05-12 13:47:00,49.9,28.8,29.72,SSW,198,3.0,6.0,44,0.00,,,0.01,Wunderground v.1.15,2013-05-12 17:47:00,
2013-05-12 13:52:00,49.9,28.8,29.72,WSW,254,3.0,3.0,44,0.00,,,0.01,Wunderground v.1.15,2013-05-12 17:52:00,
2013-05-12 14:02:00,50.4,29.3,29.72,South,182,2.0,2.0,44,0.00,,,0.01,Wunderground v.1.15,2013-05-12 18:02:00,
2013-05-12 14:08:00,50.1,30.1,29.72,NW,316,3.0,3.0,46,0.00,,,0.01,Wunderground v.1.15,2013-05-12 18:08:00,
2013-05-12 14:17:00,50.5,31.5,29.72,SW,227,1.0,3.0,48,0.00,,,0.01,Wunderground v.1.15,2013-05-12 18:17:00,
2013-05-12 14:23:00,49.9,29.9,29.72,West,261,2.0,5.0,46,0.00,,,0.01,Wunderground v.1.15,2013-05-12 18:23:00,
2013-05-12 14:32:00,50.5,31.0,29.72,NNW,340,2.0,10.0,47,0.00,,,0.01,Wunderground v.1.15,2013-05-12 18:32:00,
2013-05-12 14:37:00,50.1,30.1,29.72,SW,226,2.0,3.0,46,0.00,,,0.01,Wunderground v.1.15,2013-05-12 18:37:00,
2013-05-12 14:47:00,51.3,31.2,29.72,SW,233,1.0,3.0,46,0.00,,,0.01,Wunderground v.1.15,2013-05-12 18:47:00,
2013-05-12 14:53:00,51.1,31.0,29.72,WNW,302,2.0,2.0,46,0.00,,,0.01,Wunderground v.1.15,2013-05-12 18:53:00,
2013-05-12 15:02:00,51.1,30.5,29.72,South,172,2.0,2.0,45,0.00,,,0.01,Wunderground v.1.15,2013-05-12 19:02:00,
2013-05-12 15:08:00,51.3,29.0,29.72,SSW,205,2.0,2.0,42,0.00,,,0.01,Wunderground v.1.15,2013-05-12 19:08:00,
2013-05-12 15:17:00,51.3,30.7,29.73,SE,136,2.0,5.0,45,0.00,,,0.01,Wunderground v.1.15,2013-05-12 19:17:00,
2013-05-12 15:23:00,50.7,30.7,29.73,SE,137,3.0,3.0,46,0.00,,,0.01,Wunderground v.1.15,2013-05-12 19:23:00,
2013-05-12 15:32:00,50.4,30.4,29.72,WNW,295,3.0,11.0,46,0.00,,,0.01,Wunderground v.1.15,2013-05-12 19:32:00,
2013-05-12 15:37:00,50.8,29.6,29.72,SSW,203,2.0,2.0,44,0.00,,,0.01,Wunderground v.1.15,2013-05-12 19:37:00,
2013-05-12 15:47:00,50.7,30.7,29.73,WNW,291,2.0,4.0,46,0.00,,,0.01,Wunderground v.1.15,2013-05-12 19:47:00,
2013-05-12 15:52:00,50.1,30.1,29.73,West,281,3.0,6.0,46,0.00,,,0.01,Wunderground v.1.15,2013-05-12 19:52:00,
2013-05-12 16:02:00,43.3,33.1,29.76,WNW,282,5.0,5.0,67,0.00,,,0.02,Wunderground v.1.15,2013-05-12 20:02:00,
2013-05-12 16:07:00,41.2,34.2,29.76,WSW,254,5.0,5.0,76,0.14,,,0.03,Wunderground v.1.15,2013-05-12 20:07:00,
2013-05-12 16:17:00,40.3,34.9,29.77,WNW,284,2.0,6.0,81,0.05,,,0.03,Wunderground v.1.15,2013-05-12 20:17:00,
2013-05-12 16:22:00,39.9,35.2,29.77,West,265,3.0,3.0,83,0.00,,,0.03,Wunderground v.1.15,2013-05-12 20:22:00,
2013-05-12 16:32:00,40.2,35.8,29.78,SW,226,2.0,2.0,84,0.00,,,0.03,Wunderground v.1.15,2013-05-12 20:32:00,
2013-05-12 16:37:00,40.2,35.8,29.78,WSW,248,2.0,5.0,84,0.00,,,0.03,Wunderground v.1.15,2013-05-12 20:37:00,
2013-05-12 16:47:00,39.9,35.8,29.77,West,280,2.0,4.0,85,0.00,,,0.04,Wunderground v.1.15,2013-05-12 20:47:00,
2013-05-12 16:52:00,39.8,35.7,29.77,NW,305,3.0,5.0,85,0.00,,,0.04,Wunderground v.1.15,2013-05-12 20:52:00,
2013-05-12 17:02:00,39.5,35.7,29.78,SSE,152,2.0,2.0,86,0.04,,,0.05,Wunderground v.1.15,2013-05-12 21:02:00,
2013-05-12 17:07:00,39.8,36.0,29.78,WSW,253,2.0,4.0,86,0.05,,,0.06,Wunderground v.1.15,2013-05-12 21:07:00,
2013-05-12 17:17:00,40.2,36.3,29.79,NE,44,2.0,2.0,86,0.05,,,0.06,Wunderground v.1.15,2013-05-12 21:17:00,
2013-05-12 17:22:00,40.2,36.3,29.79,SSW,209,2.0,2.0,86,0.04,,,0.07,Wunderground v.1.15,2013-05-12 21:22:00,
2013-05-12 17:32:00,40.5,36.6,29.79,West,271,2.0,2.0,86,0.04,,,0.07,Wunderground v.1.15,2013-05-12 21:32:00,
2013-05-12 17:37:00,41.1,37.5,29.79,SSW,196,2.0,2.0,87,0.04,,,0.07,Wunderground v.1.15,2013-05-12 21:37:00,
2013-05-12 17:47:00,41.2,37.3,29.78,South,171,1.0,2.0,86,0.00,,,0.07,Wunderground v.1.15,2013-05-12 21:47:00,
2013-05-12 17:52:00,41.2,37.3,29.78,NW,308,1.0,1.0,86,0.00,,,0.07,Wunderground v.1.15,2013-05-12 21:52:00,
2013-05-12 18:02:00,41.5,37.3,29.78,WSW,244,0.0,0.0,85,0.00,,,0.07,Wunderground v.1.15,2013-05-12 22:02:00,
2013-05-12 18:07:00,41.6,37.4,29.78,WNW,284,1.0,1.0,85,0.00,,,0.07,Wunderground v.1.15,2013-05-12 22:07:00,
2013-05-12 18:17:00,42.2,37.4,29.78,West,264,2.0,8.0,83,0.00,,,0.07,Wunderground v.1.15,2013-05-12 22:17:00,
2013-05-12 18:23:00,42.5,37.4,29.78,South,169,2.0,2.0,82,0.00,,,0.07,Wunderground v.1.15,2013-05-12 22:23:00,
2013-05-12 18:32:00,42.2,36.2,29.78,NNW,336,1.0,2.0,79,0.00,,,0.07,Wunderground v.1.15,2013-05-12 22:32:00,
2013-05-12 18:38:00,41.5,35.2,29.78,WNW,289,2.0,2.0,78,0.00,,,0.07,Wunderground v.1.15,2013-05-12 22:38:00,
2013-05-12 18:47:00,41.1,35.7,29.79,WSW,256,2.0,2.0,81,0.00,,,0.08,Wunderground v.1.15,2013-05-12 22:47:00,
2013-05-12 18:53:00,41.1,35.7,29.79,NNE,17,2.0,2.0,81,0.00,,,0.08,Wunderground v.1.15,2013-05-12 22:53:00,
2013-05-12 19:02:00,40.8,35.7,29.79,West,278,1.0,1.0,82,0.00,,,0.08,Wunderground v.1.15,2013-05-12 23:02:00,
2013-05-12 19:07:00,40.9,35.8,29.79,West,267,1.0,1.0,82,0.00,,,0.08,Wunderground v.1.15,2013-05-12 23:07:00,
2013-05-12 19:12:00,41.1,36.3,29.79,West,267,0.0,0.0,83,0.00,,,0.08,Wunderground v.1.15,2013-05-12 23:12:00,
2013-05-12 19:22:00,41.3,36.2,29.79,SSW,199,1.0,7.0,82,0.00,,,0.08,Wunderground v.1.15,2013-05-12 23:22:00,
2013-05-12 19:32:00,41.5,35.5,29.79,West,275,1.0,2.0,79,0.00,,,0.08,Wunderground v.1.15,2013-05-12 23:32:00,
2013-05-12 19:37:00,41.5,35.2,29.79,NW,312,2.0,3.0,78,0.00,,,0.08,Wunderground v.1.15,2013-05-12 23:37:00,
2013-05-12 19:47:00,41.6,34.6,29.79,WNW,284,2.0,2.0,76,0.00,,,0.08,Wunderground v.1.15,2013-05-12 23:47:00,
2013-05-12 19:52:00,41.8,34.5,29.79,North,352,2.0,3.0,75,0.00,,,0.08,Wunderground v.1.15,2013-05-12 23:52:00,
2013-05-12 20:02:00,41.2,34.5,29.81,SSW,198,3.0,3.0,77,0.00,,,0.08,Wunderground v.1.15,2013-05-13 00:02:00,
2013-05-12 20:07:00,40.6,34.0,29.81,WNW,296,3.0,3.0,77,0.00,,,0.08,Wunderground v.1.15,2013-05-13 00:07:00,
2013-05-12 20:12:00,40.5,34.2,29.81,WSW,247,3.0,3.0,78,0.00,,,0.08,Wunderground v.1.15,2013-05-13 00:12:00,
2013-05-12 20:22:00,40.2,34.5,29.81,WNW,295,1.0,1.0,80,0.00,,,0.08,Wunderground v.1.15,2013-05-13 00:22:00,
2013-05-12 20:32:00,39.9,34.5,29.81,West,263,0.0,0.0,81,0.00,,,0.08,Wunderground v.1.15,2013-05-13 00:32:00,
2013-05-12 20:37:00,39.8,34.8,29.81,West,264,0.0,0.0,82,0.00,,,0.08,Wunderground v.1.15,2013-05-13 00:37:00,
2013-05-12 20:47:00,39.6,34.9,29.82,South,188,0.0,0.0,83,0.00,,,0.08,Wunderground v.1.15,2013-05-13 00:47:00,
2013-05-12 20:52:00,39.6,34.9,29.82,NW,306,0.0,0.0,83,0.00,,,0.08,Wunderground v.1.15,2013-05-13 00:52:00,
2013-05-12 21:02:00,39.6,34.9,29.82,WNW,291,0.0,0.0,83,0.00,,,0.08,Wunderground v.1.15,2013-05-13 01:02:00,
2013-05-12 21:12:00,39.5,34.5,29.82,West,281,0.0,0.0,82,0.00,,,0.08,Wunderground v.1.15,2013-05-13 01:12:00,
2013-05-12 21:22:00,39.2,34.2,29.83,SW,215,0.0,0.0,82,0.00,,,0.08,Wunderground v.1.15,2013-05-13 01:22:00,
2013-05-12 21:32:00,39.1,34.1,29.83,SW,223,0.0,0.0,82,0.00,,,0.08,Wunderground v.1.15,2013-05-13 01:32:00,
2013-05-12 21:37:00,39.1,34.1,29.83,SW,223,0.0,0.0,82,0.00,,,0.08,Wunderground v.1.15,2013-05-13 01:37:00,
2013-05-12 21:47:00,39.1,34.1,29.83,SW,223,0.0,0.0,82,0.00,,,0.08,Wunderground v.1.15,2013-05-13 01:47:00,
2013-05-12 21:52:00,39.1,34.1,29.83,SW,223,0.0,0.0,82,0.00,,,0.08,Wunderground v.1.15,2013-05-13 01:52:00,
2013-05-12 22:02:00,39.1,33.8,29.84,SW,223,0.0,0.0,81,0.00,,,0.08,Wunderground v.1.15,2013-05-13 02:02:00,
2013-05-12 22:12:00,39.1,33.5,29.84,North,350,0.0,0.0,80,0.00,,,0.08,Wunderground v.1.15,2013-05-13 02:12:00,
2013-05-12 22:22:00,39.2,32.9,29.85,East,86,0.0,0.0,78,0.00,,,0.08,Wunderground v.1.15,2013-05-13 02:22:00,
2013-05-12 22:32:00,39.2,32.3,29.85,ENE,69,0.0,0.0,76,0.00,,,0.08,Wunderground v.1.15,2013-05-13 02:32:00,
2013-05-12 22:37:00,39.3,32.0,29.85,ENE,69,0.0,0.0,75,0.00,,,0.08,Wunderground v.1.15,2013-05-13 02:37:00,
2013-05-12 22:47:00,39.6,31.7,29.85,NE,48,0.0,0.0,73,0.00,,,0.08,Wunderground v.1.15,2013-05-13 02:47:00,
2013-05-12 22:52:00,39.6,31.3,29.85,SW,226,1.0,1.0,72,0.00,,,0.08,Wunderground v.1.15,2013-05-13 02:52:00,
2013-05-12 23:02:00,39.8,30.8,29.85,WNW,296,1.0,3.0,70,0.00,,,0.08,Wunderground v.1.15,2013-05-13 03:02:00,
2013-05-12 23:12:00,39.8,30.5,29.85,WNW,294,1.0,1.0,69,0.00,,,0.08,Wunderground v.1.15,2013-05-13 03:12:00,
2013-05-12 23:22:00,39.8,30.1,29.85,West,272,1.0,1.0,68,0.00,,,0.08,Wunderground v.1.15,2013-05-13 03:22:00,
2013-05-12 23:32:00,39.6,29.9,29.85,WSW,258,1.0,1.0,68,0.00,,,0.08,Wunderground v.1.15,2013-05-13 03:32:00,
2013-05-12 23:37:00,39.6,30.3,29.85,South,171,1.0,8.0,69,0.00,,,0.08,Wunderground v.1.15,2013-05-13 03:37:00,
2013-05-12 23:47:00,39.6,29.5,29.86,WNW,299,2.0,3.0,67,0.00,,,0.08,Wunderground v.1.15,2013-05-13 03:47:00,
2013-05-12 23:52:00,39.6,29.5,29.86,WNW,292,1.0,3.0,67,0.00,,,0.08,Wunderground v.1.15,2013-05-13 03:52:00,